Cloud_Cover
100 100 100 100 100 100 100 100 100 100 6 5 5 1 0 0 0 0 0 0 0 0 0 0 0 0 0 0 0 4 5 5 63 95 100 100 100 62 12 95 100 100 100 100
100 100 100 100 100 100 86 100 100 98 5 53 5 4 0 0 4 5 5 4 0 0 0 0 0 0 0 0 0 5 5 28 95 94 100 100 100 73 55 61 100 100 100 100
100 100 100 100 100 100 97 12 11 5 29 14 5 5 0 2 5 5 5 5 3 0 0 0 2 4 5 5 5 5 5 33 93 85 100 100 86 20 10 32 100 100 100 100
100 100 100 100 53 92 34 92 13 22 14 5 5 4 0 5 4 4 4 5 5 0 0 0 0 5 5 5 5 5 5 34 92 76 100 100 100 100 50 46 84 100 100 100
96 96 100 100 100 99 99 81 19 6 5 5 3 4 0 2 0 0 0 0 4 0 0 0 0 5 5 5 5 5 5 64 68 96 98 100 100 82 77 57 86 100 100 100
83 100 100 100 100 99 71 5 5 5 5 0 2 0 0 0 0 0 0 0 0 0 0 0 0 1 5 5 5 5 5 65 79 100 95 100 100 91 82 61 100 100 100 100
100 100 100 100 100 59 5 8 5 5 3 0 2 3 0 0 0 0 0 0 0 0 5 5 5 5 5 61 44 17 47 72 81 100 92 100 97 95 95 96 100 100 100 100
100 100 99 100 100 96 9 35 5 5 5 0 5 2 0 0 0 0 0 0 1 4 4 5 5 5 5 48 9 5 98 80 81 96 84 99 100 100 99 100 100 100 100 100
100 100 93 100 100 99 62 8 5 5 5 4 42 0 0 0 0 1 0 2 4 0 0 1 5 5 5 87 68 51 82 100 88 100 97 95 97 100 96 100 100 100 100 100
100 100 100 97 97 99 72 13 8 17 3 0 2 4 0 0 0 0 0 0 0 0 1 4 5 5 5 62 54 72 100 100 100 100 100 100 100 100 97 100 100 100 100 100
100 100 100 100 100 100 99 73 12 10 18 0 1 4 0 0 0 0 0 0 0 1 2 4 5 5 5 64 5 96 99 100 100 100 100 100 100 100 100 100 100 100 100 100
94 100 100 100 100 100 100 79 47 100 86 40 5 1 5 0 0 0 0 0 1 5 4 5 5 5 5 5 16 97 100 100 100 100 100 100 100 99 100 100 100 100 100 100
100 100 100 100 100 97 100 98 78 85 48 75 5 3 2 2 0 0 0 0 1 3 5 5 5 5 5 5 11 17 100 100 100 100 100 100 100 100 100 100 100 100 100 100
100 100 100 100 97 95 100 100 71 55 5 47 12 52 5 0 0 3 2 3 5 0 1 5 5 5 5 5 5 88 92 95 100 100 100 100 100 100 100 100 100 100 100 100
100 100 100 100 100 96 100 99 92 66 59 31 11 5 5 5 5 5 0 0 0 0 2 19 5 5 5 5 5 8 43 100 100 100 100 100 100 100 100 100 100 100 100 100
100 99 100 100 100 100 84 100 76 83 75 29 36 57 5 5 5 5 4 1 4 0 0 0 4 4 5 5 5 5 7 69 100 100 100 100 100 100 100 100 100 100 100 100
100 100 85 100 100 100 100 100 100 100 100 49 12 83 5 5 5 5 5 5 5 2 1 0 1 0 4 4 4 5 5 5 13 100 97 100 100 100 100 100 100 100 100 100
32 100 100 100 100 100 100 100 98 100 100 48 44 72 8 5 5 5 5 5 5 5 5 3 2 0 0 0 0 5 5 5 5 9 100 100 100 100 100 100 100 100 100 100
5 24 95 98 100 100 100 100 100 100 100 88 80 58 56 35 5 31 5 5 5 5 5 5 2 0 0 0 0 0 0 5 5 5 7 62 27 90 96 100 100 100 100 100
3 13 84 100 100 100 100 100 100 100 100 100 97 69 11 11 48 5 5 5 5 5 5 5 5 0 0 0 0 0 0 0 0 0 3 5 5 5 70 80 97 100 100 100
14 100 94 100 100 89 100 100 100 100 100 100 100 100 91 44 100 50 5 5 5 5 5 5 5 5 0 0 0 0 0 0 0 0 0 0 0 5 6 22 24 78 99 100
98 100 93 100 100 100 100 100 100 100 100 100 100 93 100 99 95 68 31 5 5 5 5 5 5 5 0 0 0 0 0 0 0 0 0 0 0 0 4 11 25 21 80 100
79 30 88 97 63 100 100 100 100 100 100 100 100 100 100 100 100 21 52 5 5 5 5 5 5 5 5 0 0 0 0 0 0 0 0 0 0 0 0 5 59 59 97 100
7 89 80 49 4 70 100 100 100 100 100 100 100 100 100 100 100 72 5 61 7 5 5 50 19 11 5 0 0 0 0 0 0 0 0 0 0 0 0 0 5 16 89 100
18 48 60 10 5 74 100 100 100 100 100 100 100 100 100 100 100 65 63 80 17 5 5 59 73 52 5 0 3 0 0 0 0 0 0 0 4 5 1 0 3 5 67 100
100 82 86 11 100 100 62 100 100 100 100 100 100 100 100 100 100 100 97 100 91 24 23 85 35 73 16 5 5 3 5 5 5 0 0 1 5 5 1 0 0 2 6 22